Find Starlink 3387

NORAD ID: 51125 Int'l Des: 2022-005 Owner: SPXS Country: US Constellation: starlink operational
LEOCIRCULAR

リアルタイム位置

3D地球を読み込み中...

Starlink 3387について

説明を読み込み中...

次回通過

Passes for default location (London). Set your location on the main map for personalized predictions.

高度履歴

Loading altitude history...

軌道要素

1 51125U 22005X 26110.28313009 .00000394 00000-0 42809-4 0 9992
2 51125 53.2162 112.4102 0001289 84.7082 275.4057 15.08842631235003
Epoch: Apr 20, 2026 • Age: 9 hours

現在のステータス

高度 539.7 km
速度 7.59 km/s
衛星直下点 12.45°N, 159.43°W
打ち上げ日 Jan 19, 2022
運用期間 4.2 years
タイプ internet

技術仕様

分類 Payload
質量 297.00 kg
乾燥質量 275.00 kg
総質量 297.00 kg
長さ 0.20 m
直径 2.80 m
スパン 9.00 m
形状 Box + pan
製造者 SPXS
バスタイプ Starlink
フェーズステータス In Orbit
所有者/国 SPXS/US

Most Searched